Weather History for Culpeper, VA

Change the Weather History Date:

Monday, March 5, 2012

  Actual Average (KOMH) Record (KOMH)
Temperature  
Mean Temperature 36 °F -  
Max Temperature 46 °F 51 °F 81 °F (1983)
Min Temperature 26 °F 32 °F 8 °F (1978)
Degree Days  
Heating Degree Days 29    
Moisture  
Dew Point 28 °F    
Average Humidity 77    
Maximum Humidity 100    
Minimum Humidity 39    
Precipitation  
Precipitation 0.00 in - - ()
Sea Level Pressure  
Sea Level Pressure 30.07 in    
Wind  
Wind Speed 4 mph (NW)    
Max Wind Speed 18 mph    
Max Gust Speed 28 mph    
Visibility 8 miles    
Events Snow    
Averages and records for this station are not official NWS values.
T = Trace of Precipitation, MM = Missing Value Source: NWS Daily Summary

Daily Weather History Graph

Daily Weather History Graph

Search for Another Location

Airport:

Trip Planner

Search our weather history database for the weather conditions in past years. The results will help you decide how hot, cold, wet, or windy it might be!

Date:

Astronomy

Mar. 05, 2012 Rise Set
Actual Time 6:37 AM EST 6:09 PM EST
Civil Twilight 6:10 AM EST 6:35 PM EST
Nautical Twilight 5:39 AM EST 7:06 PM EST
Astronomical Twilight 5:09 AM EST 7:37 PM EST
Moon 3:26 PM EST (3/5) 4:33 AM EST (3/5)
Length of Visible Light 12h 25m
Length of Day
11h 32m
Waxing Gibbous, 91% of the Moon is Illuminated
Mar 5
Waxing Gibbous
Mar 8
Full
Mar 14
Last Quarter
Mar 22
New
Mar 30
First Quarter

Hourly Weather History & Observations

Time (EST) Temp. Windchill Dew Point Humidity Pressure Visibility Wind Dir Wind Speed Gust Speed Precip Events Conditions
12:15 AM 35.6 °F 30.7 °F 21.2 °F 56% 29.94 in 10.0 mi WSW 5.8 mph - N/A   Unknown
12:35 AM 33.8 °F 29.6 °F 21.2 °F 60% 29.94 in 10.0 mi SW 4.6 mph - N/A   Unknown
12:55 AM 33.8 °F 30.8 °F 23.0 °F 65% 29.95 in 10.0 mi SW 3.5 mph - N/A   Unknown
1:15 AM 33.8 °F 29.6 °F 23.0 °F 65% 29.95 in 10.0 mi SSW 4.6 mph - N/A   Unknown
1:35 AM 32.0 °F - 23.0 °F 69% 29.94 in 10.0 mi Calm Calm - N/A   Unknown
1:55 AM 30.2 °F 26.7 °F 24.8 °F 80% 29.94 in 10.0 mi WSW 3.5 mph - N/A   Unknown
2:15 AM 28.4 °F 23.3 °F 23.0 °F 80% 29.95 in 10.0 mi SSW 4.6 mph - N/A   Unknown
2:35 AM 28.4 °F 24.6 °F 23.0 °F 80% 29.94 in 10.0 mi SSW 3.5 mph - N/A   Unknown
2:55 AM 30.2 °F - 24.8 °F 80% 29.94 in 10.0 mi Calm Calm - N/A   Unknown
3:15 AM 30.2 °F 26.7 °F 24.8 °F 80% 29.94 in 10.0 mi SW 3.5 mph - N/A   Unknown
3:35 AM 28.4 °F - 24.8 °F 86% 29.94 in 10.0 mi Calm Calm - N/A   Unknown
3:55 AM 28.4 °F - 24.8 °F 86% 29.94 in 10.0 mi Calm Calm - N/A   Unknown
4:15 AM 28.4 °F - 24.8 °F 86% 29.95 in 10.0 mi Calm Calm - N/A   Unknown
4:35 AM 28.4 °F - 24.8 °F 86% 29.95 in 10.0 mi Calm Calm - N/A   Unknown
4:55 AM 26.6 °F - 24.8 °F 93% 29.94 in 10.0 mi Calm Calm - N/A   Unknown
5:15 AM 26.6 °F - 24.8 °F 93% 29.95 in 10.0 mi Calm Calm - N/A   Unknown
5:35 AM 26.6 °F - 24.8 °F 93% 29.95 in 10.0 mi Calm Calm - N/A   Unknown
5:55 AM 28.4 °F - 24.8 °F 86% 29.97 in 10.0 mi Calm Calm - N/A   Unknown
6:15 AM 28.4 °F - 26.6 °F 93% 29.97 in 10.0 mi Calm Calm - N/A   Unknown
6:35 AM 30.2 °F - 26.6 °F 86% 29.97 in 10.0 mi Calm Calm - N/A   Unknown
6:55 AM 30.2 °F - 26.6 °F 86% 29.99 in 10.0 mi Calm Calm - N/A   Unknown
7:15 AM 30.2 °F - 26.6 °F 86% 29.99 in 10.0 mi Calm Calm - N/A   Unknown
7:35 AM 32.0 °F - 26.6 °F 80% 30.01 in 10.0 mi Calm Calm - N/A   Unknown
7:55 AM 33.8 °F 30.8 °F 26.6 °F 75% 30.01 in 3.0 mi WSW 3.5 mph - N/A Snow Light Snow
8:15 AM 32.0 °F - 28.4 °F 87% 30.02 in 2.5 mi Calm Calm - N/A Snow Light Snow
8:35 AM 32.0 °F - 30.2 °F 93% 30.02 in 1.8 mi Calm Calm - N/A Snow Light Snow
8:55 AM 32.0 °F 28.7 °F 30.2 °F 93% 30.02 in 1.5 mi North 3.5 mph - N/A Snow Light Snow
9:15 AM 32.0 °F 26.4 °F 30.2 °F 93% 30.03 in 1.2 mi NNE 5.8 mph - N/A Snow Light Snow
9:35 AM 32.0 °F 26.4 °F 32.0 °F 100% 30.03 in 1.5 mi North 5.8 mph - N/A Snow Light Snow
9:55 AM 33.8 °F 28.6 °F 32.0 °F 93% 30.04 in 1.0 mi North 5.8 mph - N/A Snow Light Snow
10:15 AM 33.8 °F 29.6 °F 32.0 °F 93% 30.05 in 0.8 mi North 4.6 mph - N/A Snow Light Snow
10:35 AM 33.8 °F 29.6 °F 33.8 °F 100% 30.06 in 1.0 mi North 4.6 mph - N/A Snow Light Snow
10:55 AM 33.8 °F 29.6 °F 33.8 °F 100% 30.06 in 1.8 mi North 4.6 mph - N/A Snow Light Snow
11:15 AM 35.6 °F 30.7 °F 33.8 °F 93% 30.07 in 2.0 mi NNW 5.8 mph - N/A Snow Light Snow
11:35 AM 35.6 °F 29.9 °F 33.8 °F 93% 30.09 in 2.5 mi NNW 6.9 mph - N/A Snow Light Snow
11:55 AM 35.6 °F 30.7 °F 35.6 °F 100% 30.10 in 4.0 mi North 5.8 mph - N/A Snow Light Snow
12:15 PM 37.4 °F 32.8 °F 35.6 °F 93% 30.10 in 10.0 mi North 5.8 mph - N/A Snow Light Snow
12:35 PM 37.4 °F 30.3 °F 35.6 °F 93% 30.11 in 10.0 mi North 10.4 mph - N/A   Light Drizzle
12:55 PM 39.2 °F 32.5 °F 35.6 °F 87% 30.11 in 10.0 mi North 10.4 mph - N/A   Unknown
1:15 PM 41.0 °F 36.4 °F 32.0 °F 70% 30.11 in 10.0 mi North 6.9 mph 16.1 mph N/A   Unknown
1:35 PM 42.8 °F 37.5 °F 30.2 °F 61% 30.12 in 10.0 mi NW 9.2 mph 16.1 mph N/A   Unknown
1:55 PM 42.8 °F 35.8 °F 24.8 °F 49% 30.12 in 10.0 mi NNW 13.8 mph 19.6 mph N/A   Unknown
2:15 PM 42.8 °F 37.5 °F 26.6 °F 53% 30.13 in 10.0 mi WNW 9.2 mph - N/A   Unknown
2:35 PM 42.8 °F 36.6 °F 24.8 °F 49% 30.14 in 10.0 mi WNW 11.5 mph 20.7 mph N/A   Unknown
2:55 PM 44.6 °F 39.7 °F 24.8 °F 46% 30.15 in 10.0 mi NW 9.2 mph 18.4 mph N/A   Unknown
3:15 PM 44.6 °F 39.2 °F 23.0 °F 43% 30.15 in 10.0 mi NNW 10.4 mph 25.3 mph N/A   Unknown
3:35 PM 46.4 °F 41.1 °F 24.8 °F 43% 30.16 in 10.0 mi WNW 11.5 mph - N/A   Unknown
3:55 PM 44.6 °F 38.4 °F 21.2 °F 39% 30.18 in 10.0 mi WNW 12.7 mph 17.3 mph N/A   Unknown
4:15 PM 44.6 °F 38.1 °F 21.2 °F 39% 30.20 in 10.0 mi NW 13.8 mph 20.7 mph N/A   Unknown
4:35 PM 39.2 °F 29.8 °F 28.4 °F 65% 30.23 in 10.0 mi North 18.4 mph 27.6 mph N/A   Unknown
4:55 PM 39.2 °F 31.6 °F 28.4 °F 65% 30.26 in 10.0 mi WNW 12.7 mph 18.4 mph N/A   Unknown
5:15 PM 37.4 °F 33.8 °F 32.0 °F 81% 30.27 in 4.0 mi WNW 4.6 mph - N/A Snow Light Snow
5:35 PM 37.4 °F - 30.2 °F 75% 30.28 in 10.0 mi Calm Calm - N/A   Unknown
5:55 PM 37.4 °F 32.8 °F 30.2 °F 75% 30.29 in 10.0 mi WNW 5.8 mph - N/A   Unknown
6:15 PM 37.4 °F 33.8 °F 28.4 °F 70% 30.30 in 10.0 mi NW 4.6 mph - N/A   Unknown
6:35 PM 37.4 °F 33.8 °F 28.4 °F 70% 30.32 in 10.0 mi WNW 4.6 mph - N/A   Unknown
6:55 PM 37.4 °F 32.1 °F 26.6 °F 65% 30.33 in 10.0 mi NW 6.9 mph - N/A   Unknown
7:15 PM 37.4 °F 34.9 °F 26.6 °F 65% 30.34 in 10.0 mi NW 3.5 mph - N/A   Unknown
7:35 PM 37.4 °F 34.9 °F 26.6 °F 65% 30.37 in 10.0 mi NW 3.5 mph - N/A   Unknown
7:55 PM 37.4 °F 34.9 °F 26.6 °F 65% 30.38 in 10.0 mi NW 3.5 mph - N/A   Unknown
8:15 PM 37.4 °F - 23.0 °F 56% 30.38 in 10.0 mi Calm Calm - N/A   Unknown
8:35 PM 35.6 °F - 21.2 °F 56% 30.40 in 10.0 mi Calm Calm - N/A   Unknown
8:55 PM 35.6 °F 30.7 °F 19.4 °F 52% 30.41 in 10.0 mi NW 5.8 mph - N/A   Unknown
9:15 PM 35.6 °F 32.8 °F 19.4 °F 52% 30.43 in 10.0 mi NW 3.5 mph - N/A   Unknown
9:35 PM 33.8 °F 29.6 °F 19.4 °F 56% 30.43 in 10.0 mi North 4.6 mph - N/A   Unknown
9:55 PM 30.2 °F - 21.2 °F 69% 30.45 in 10.0 mi Calm Calm - N/A   Unknown
10:15 PM 33.8 °F - 19.4 °F 56% 30.46 in 10.0 mi Calm Calm - N/A   Unknown
10:55 PM 30.2 °F - 21.2 °F 69% 30.48 in 10.0 mi Calm Calm - N/A   Unknown
11:15 PM 30.2 °F - 21.2 °F 69% 30.48 in 10.0 mi Calm Calm - N/A   Unknown
11:35 PM 28.4 °F 24.6 °F 21.2 °F 74% 30.48 in 10.0 mi West 3.5 mph - N/A   Unknown
11:55 PM 28.4 °F - 21.2 °F 74% 30.49 in 10.0 mi Calm Calm - N/A   Unknown